Temperature
2 1 1 1 1 2 2 2 2 2 3 2 2 2 3 3 3 3 3 4 4 4 5 5 5 6 6 6 6 6 7 7 7 8 8 8 9 9 9 9 10 10 10 10
1 1 1 2 2 2 2 1 1 2 3 3 1 2 2 2 2 3 3 3 3 4 4 4 5 5 5 5 6 6 6 6 7 7 7 8 8 8 9 9 9 9 9 10
1 1 2 2 1 2 2 1 1 1 2 2 1 2 2 2 2 3 3 3 3 3 3 3 4 4 5 5 5 5 6 6 6 6 7 7 7 7 8 8 9 9 9 9
-0 0 1 1 1 1 1 1 1 1 1 0 1 1 2 1 1 1 1 2 2 2 2 3 3 4 4 4 5 5 5 5 6 6 6 6 7 7 7 8 8 8 8 9
-0 -0 0 1 1 1 0 1 1 1 0 -1 -0 -0 1 1 1 1 0 1 1 2 2 2 2 3 3 4 4 4 5 5 5 5 6 6 6 7 7 7 7 8 8 8
-1 -0 -0 0 0 1 0 0 0 -1 -1 -0 -0 -0 0 -1 -0 0 -0 0 1 1 1 2 2 2 3 3 4 4 5 5 5 5 5 6 6 6 6 7 7 7 7 8
-1 -0 -0 -0 0 0 -1 -1 -1 -0 -1 -0 -0 -0 -1 -1 -1 -1 -1 -0 0 1 1 1 1 2 2 3 3 3 4 4 4 5 5 5 6 6 6 6 7 7 7 7
-1 -1 -1 -1 -1 -1 -2 -1 -1 0 -0 -1 -1 -1 -1 -1 -1 -1 -1 -1 -0 -0 0 0 1 1 2 2 2 3 3 4 4 4 5 5 5 5 6 6 6 6 6 7
-3 -2 -1 -1 -1 -1 -2 -2 -2 -2 -3 -2 -2 -3 -2 -2 -2 -2 -2 -2 -1 -1 -0 0 0 1 1 2 2 2 3 3 4 4 4 5 5 5 5 6 6 6 6 6
-4 -3 -2 -2 -1 -2 -2 -3 -3 -2 -2 -1 -2 -2 -2 -2 -2 -3 -3 -3 -2 -2 -1 -1 0 0 1 1 2 2 2 3 3 3 4 4 4 5 5 5 5 6 6 6
-4 -4 -3 -3 -3 -3 -3 -3 -4 -4 -3 -2 -2 -1 -3 -3 -3 -4 -3 -3 -3 -2 -2 -1 -0 0 1 1 1 2 2 2 2 3 3 4 4 4 5 5 5 5 5 5
-5 -5 -5 -4 -3 -3 -4 -4 -4 -3 -3 -4 -4 -2 -3 -4 -4 -4 -4 -3 -3 -2 -2 -2 -1 -0 0 1 1 1 1 2 2 2 2 3 3 4 4 4 4 5 5 5
-5 -5 -4 -2 -3 -4 -5 -5 -5 -5 -5 -5 -4 -3 -3 -4 -4 -4 -4 -3 -3 -3 -2 -2 -2 -1 -0 0 1 1 1 1 2 2 2 2 3 3 3 4 4 4 4 5
-4 -6 -4 -2 -3 -4 -5 -5 -6 -5 -5 -5 -5 -4 -4 -4 -5 -4 -4 -3 -3 -3 -3 -2 -2 -2 -1 -0 0 0 1 1 1 2 2 2 2 3 3 3 4 4 4 4
-5 -5 -6 -6 -5 -5 -5 -5 -5 -6 -6 -5 -4 -5 -4 -5 -5 -5 -4 -4 -4 -4 -3 -3 -3 -2 -2 -1 -0 0 0 1 1 1 1 2 2 2 2 3 3 3 4 4
-6 -6 -6 -6 -5 -6 -5 -5 -5 -5 -5 -6 -5 -5 -5 -5 -5 -5 -4 -4 -5 -4 -4 -3 -3 -3 -2 -2 -1 -0 0 0 0 1 1 1 1 2 2 2 2 3 3 3
-7 -7 -6 -6 -6 -5 -5 -5 -5 -6 -6 -6 -5 -5 -6 -6 -6 -5 -5 -5 -5 -5 -4 -4 -4 -3 -3 -2 -2 -1 -0 -0 -0 0 0 1 1 1 1 2 2 2 2 2
-8 -7 -7 -7 -6 -5 -4 -6 -6 -6 -6 -7 -6 -6 -6 -6 -6 -5 -5 -5 -5 -5 -5 -4 -4 -4 -3 -3 -2 -2 -1 -1 -1 -1 0 0 0 1 1 1 1 1 1 2
-8 -7 -7 -7 -7 -6 -5 -6 -7 -7 -6 -7 -7 -7 -6 -6 -6 -5 -5 -5 -5 -5 -5 -5 -4 -4 -3 -3 -3 -2 -2 -1 -1 -1 -0 -0 0 0 0 1 0 1 1 1
-8 -8 -7 -8 -6 -5 -4 -6 -7 -7 -6 -6 -7 -7 -7 -7 -7 -6 -5 -5 -5 -5 -5 -5 -5 -4 -4 -3 -3 -3 -2 -2 -2 -1 -1 -1 -0 -0 0 0 0 0 0 0
-8 -9 -8 -8 -8 -7 -7 -7 -7 -5 -5 -6 -6 -7 -7 -8 -7 -5 -5 -5 -5 -5 -5 -5 -5 -4 -4 -4 -4 -3 -3 -2 -2 -2 -1 -1 -1 -1 -0 -0 -0 -0 -0 -0
-8 -9 -9 -9 -8 -6 -7 -8 -7 -6 -5 -6 -6 -6 -6 -6 -6 -6 -6 -6 -6 -6 -5 -5 -5 -5 -4 -4 -4 -4 -3 -3 -2 -2 -2 -1 -1 -1 -1 -1 -1 -1 -1 -1
-9 -8 -8 -8 -6 -6 -7 -6 -5 -6 -6 -6 -6 -6 -6 -7 -6 -6 -6 -6 -6 -6 -6 -6 -6 -5 -5 -5 -4 -4 -4 -3 -3 -2 -2 -2 -1 -1 -1 -1 -1 -1 -1 -1
-10 -10 -10 -10 -9 -8 -7 -6 -6 -6 -6 -6 -6 -6 -6 -7 -7 -7 -6 -6 -6 -6 -6 -6 -6 -6 -5 -5 -4 -4 -4 -4 -3 -3 -2 -2 -2 -2 -2 -2 -2 -2 -2 -2
-9 -10 -10 -10 -9 -8 -6 -5 -5 -5 -6 -6 -6 -6 -6 -7 -7 -7 -7 -7 -7 -7 -7 -6 -6 -6 -6 -5 -5 -5 -4 -4 -3 -3 -3 -3 -2 -2 -2 -2 -2 -2 -2 -2
-10 -10 -10 -8 -7 -8 -6 -5 -6 -6 -6 -6 -6 -7 -7 -7 -7 -7 -7 -7 -7 -7 -7 -7 -6 -6 -6 -6 -5 -5 -5 -4 -4 -4 -3 -3 -3 -3 -3 -2 -2 -2 -2 -2
Wind_Speed
4 4 1 3 3 3 2 3 5 7 4 3 7 10 11 6 3 3 3 3 3 5 5 4 3 2 2 2 2 3 3 2 2 2 3 3 3 2 1 2 4 5 6 7
4 2 4 3 1 1 2 3 4 6 3 3 6 11 9 4 2 2 3 3 3 4 4 4 3 2 2 3 3 3 4 3 3 3 3 3 3 2 2 1 2 4 5 6
2 3 4 1 0 1 3 4 4 6 5 2 3 6 4 3 2 2 2 2 3 3 4 3 2 2 2 2 3 3 4 3 3 2 1 1 2 1 1 1 1 2 4 5
1 3 3 1 1 1 5 4 5 5 2 3 0 4 6 3 3 3 3 3 4 4 4 3 2 3 3 3 3 3 3 3 3 3 4 3 4 3 2 2 2 2 4 4
2 3 2 2 3 2 4 4 3 3 2 3 1 3 7 2 4 4 4 4 4 4 3 3 3 3 3 3 2 3 2 3 3 4 4 4 4 3 2 2 3 2 3 4
2 2 1 2 3 2 2 2 1 1 1 3 4 4 6 3 4 5 4 4 5 5 5 4 4 3 3 3 2 2 2 3 3 4 4 5 5 4 4 3 3 3 2 2
5 3 2 2 3 3 4 4 4 4 2 5 2 3 6 4 3 3 4 5 5 5 5 5 5 4 4 3 3 3 3 4 3 3 4 5 5 6 6 5 5 4 3 3
4 6 3 3 0 1 1 3 4 3 4 5 2 5 5 3 3 3 3 4 6 6 5 6 6 5 4 3 4 3 3 4 4 4 4 4 5 4 4 5 5 5 4 4
1 5 3 3 2 1 1 1 3 3 1 3 5 5 6 3 5 6 6 6 7 7 7 7 7 6 5 4 4 4 4 3 4 4 4 4 5 5 4 4 4 4 3 3
3 4 5 4 2 2 1 3 2 2 1 4 5 4 4 5 6 7 7 8 8 8 7 7 7 7 6 4 4 3 3 3 3 3 3 3 4 5 4 4 5 4 4 4
2 2 5 3 1 1 1 1 1 2 2 3 4 6 3 4 4 5 7 8 8 8 7 7 7 6 5 5 4 4 3 3 3 3 3 2 3 4 4 4 5 5 4 5
2 2 4 5 3 1 2 2 3 2 3 3 3 7 3 2 3 5 7 8 7 7 6 6 6 6 5 5 5 4 4 3 3 3 2 3 3 3 4 4 4 4 4 4
3 3 3 5 3 2 1 1 1 2 1 3 4 7 2 4 6 6 7 8 8 7 7 7 7 6 6 6 6 5 5 4 3 3 2 3 2 3 4 5 4 4 4 4
3 3 4 6 6 2 4 3 2 3 3 4 7 10 10 9 9 9 8 8 7 6 6 6 6 6 7 6 6 6 6 5 4 3 3 3 3 3 4 4 4 4 5 5
3 2 4 6 7 5 6 6 5 6 7 8 8 9 12 9 9 8 7 7 7 7 7 7 6 6 7 7 7 7 6 5 4 3 3 4 3 3 3 3 4 4 4 5
2 1 1 4 4 5 7 8 8 9 7 9 10 12 9 7 6 7 7 7 7 8 8 7 7 7 7 7 7 7 7 6 5 4 4 4 3 2 2 3 3 3 3 3
1 2 0 4 5 5 7 7 8 5 6 6 9 9 6 7 8 7 7 7 7 8 8 8 7 7 7 7 7 7 7 6 5 4 4 3 2 2 2 2 2 2 2 2
4 3 2 2 4 5 6 2 4 6 7 8 7 7 7 8 8 7 6 5 7 7 8 8 7 7 7 7 7 7 6 5 5 5 4 4 2 2 1 1 1 1 2 2
5 5 2 1 3 8 7 2 2 3 6 5 7 8 8 7 6 5 4 5 6 6 7 7 7 7 7 7 6 6 6 5 5 4 4 4 3 2 1 2 2 1 2 1
2 3 3 3 3 6 5 1 1 1 5 3 3 6 6 4 4 5 6 7 7 7 6 7 7 6 6 7 6 5 5 5 5 5 5 4 3 2 2 2 2 1 1 2
1 1 4 5 6 8 5 2 1 2 5 3 3 4 3 3 6 7 8 7 6 7 7 7 6 6 6 6 6 5 5 5 6 6 5 4 2 2 2 1 1 1 1 1
6 5 5 4 5 8 2 3 5 6 3 2 4 4 5 7 8 8 8 7 7 8 8 7 6 7 6 6 5 5 5 6 6 6 5 4 2 1 1 1 1 1 2 1
6 7 5 8 8 4 4 6 4 2 3 4 4 6 5 7 8 7 7 7 7 7 7 7 6 7 7 6 5 5 6 6 6 5 5 4 3 2 1 1 2 1 1 1
4 2 3 6 9 7 6 6 6 5 6 6 6 6 5 7 7 7 7 7 6 6 6 6 6 7 7 7 6 6 7 6 5 5 5 4 3 2 2 1 1 1 2 2
5 5 4 7 7 7 6 7 7 7 6 7 6 5 5 6 6 6 6 6 6 6 6 5 5 6 7 7 7 7 6 6 5 5 4 4 3 2 2 1 1 1 1 2
5 7 7 8 7 5 6 5 4 5 6 6 6 6 5 4 6 5 6 5 5 6 5 5 6 6 7 7 7 7 6 5 4 4 4 3 3 2 2 1 2 3 1 2
Wind_Direction
16 53 6 259 232 216 220 232 264 270 280 257 249 267 278 281 256 248 258 269 272 266 273 279 277 257 239 241 233 214 213 227 215 192 191 187 191 191 184 172 177 169 170 166
36 342 288 277 246 203 232 270 279 288 282 256 266 275 278 267 238 227 231 261 280 295 307 305 305 285 252 244 243 225 214 217 221 216 220 205 190 188 190 166 163 169 162 168
167 280 311 314 344 286 253 228 257 282 315 300 287 288 274 258 249 294 289 292 311 308 306 304 305 290 276 265 250 240 232 231 230 212 196 184 143 149 176 190 187 169 163 167
334 315 341 357 310 232 260 246 266 277 301 290 97 280 276 264 278 300 320 329 319 320 316 306 306 304 292 276 263 246 235 235 234 201 188 183 185 191 211 206 197 176 163 168
308 336 355 315 295 256 252 291 270 259 237 287 256 220 280 303 274 291 302 304 312 313 309 298 288 282 291 289 275 256 240 243 229 205 196 196 197 191 185 186 182 191 170 162
285 291 273 276 299 258 281 342 347 60 101 259 229 197 275 262 260 293 301 307 318 321 318 309 299 305 309 317 311 281 254 267 243 206 197 203 199 188 177 183 191 201 188 176
327 307 337 351 353 3 38 64 14 349 322 253 210 213 253 265 262 273 295 309 325 333 336 328 321 312 309 317 308 283 265 268 254 223 210 211 203 194 190 193 195 197 197 203
339 305 319 355 16 313 348 129 156 232 249 290 283 235 254 281 308 320 325 330 337 338 335 333 329 317 304 301 297 283 264 265 251 232 225 221 205 201 203 196 197 203 205 205
316 286 328 344 340 130 114 173 175 155 264 274 268 286 300 320 338 345 342 341 333 329 330 331 333 329 319 304 290 274 256 257 252 243 230 228 208 198 203 200 200 207 208 203
169 278 303 323 4 24 134 155 103 137 229 272 289 278 271 308 320 331 333 327 322 327 332 335 331 325 318 305 301 308 279 258 258 252 236 235 213 202 200 195 201 205 213 202
150 211 310 349 353 264 56 93 113 148 182 202 271 276 242 256 292 308 314 319 318 320 323 322 320 320 325 332 329 325 312 285 278 266 257 257 222 207 196 201 207 207 213 203
163 143 279 274 265 243 163 176 154 183 249 208 227 269 280 265 297 307 314 320 317 316 320 321 323 333 343 342 333 326 319 301 283 279 277 260 229 206 204 209 215 210 209 207
145 123 334 334 342 8 343 233 180 156 165 195 211 262 309 343 332 325 321 322 321 326 333 339 339 341 344 342 336 329 319 319 315 305 297 278 251 214 213 215 215 210 204 205
133 149 192 228 256 246 271 266 211 162 201 232 234 261 296 315 320 320 319 317 317 325 332 336 335 336 339 337 336 334 330 327 322 319 311 286 272 242 221 213 208 206 202 199
111 214 236 258 270 269 256 257 230 209 216 226 251 262 282 296 301 303 308 316 323 329 330 331 329 329 331 334 333 332 328 326 319 315 294 280 268 257 227 212 207 206 208 210
86 209 288 284 273 271 274 260 239 236 236 244 264 277 278 295 304 306 308 310 314 318 320 321 321 324 324 324 322 323 320 319 320 310 292 289 280 263 234 215 205 201 205 197
151 148 262 279 308 317 277 245 220 225 222 212 241 260 306 314 310 301 299 297 298 307 313 314 314 313 314 315 315 313 310 314 319 314 310 304 294 276 256 230 191 183 190 187
165 155 186 291 357 265 256 214 205 228 250 229 251 284 298 297 299 288 283 290 302 308 310 311 313 312 313 313 313 311 315 316 313 316 318 311 304 296 274 225 201 190 176 187
183 167 174 202 272 278 288 248 177 215 276 232 246 282 304 318 319 302 299 310 297 300 302 304 306 305 309 311 313 318 319 316 314 310 309 309 303 291 258 232 225 217 189 196
114 150 170 177 226 252 262 259 196 137 285 264 242 277 306 346 327 303 322 322 312 310 308 308 313 316 316 318 320 315 313 316 314 309 303 298 285 270 254 242 231 224 206 200
131 160 198 210 234 264 263 257 127 177 265 301 254 267 266 247 258 291 311 317 317 318 319 320 320 317 315 321 327 320 319 313 309 310 307 304 288 262 248 241 223 223 215 187
185 185 200 185 214 256 212 140 189 230 289 284 270 265 259 269 286 300 305 312 320 324 325 327 326 321 322 327 326 322 321 317 320 319 314 312 306 288 251 205 216 204 181 184
204 199 199 202 222 256 189 213 237 248 266 269 268 272 268 278 288 295 301 308 315 317 320 323 321 321 327 330 329 321 319 324 325 325 322 322 319 306 281 215 197 190 176 181
246 200 211 254 263 260 252 251 260 251 253 265 264 268 263 269 281 290 298 305 312 315 316 320 324 325 327 332 331 320 319 325 325 322 323 326 330 327 319 288 219 192 184 195
223 180 217 256 274 293 272 246 254 263 264 272 275 266 260 263 277 282 290 297 303 309 314 318 317 316 318 326 328 326 328 332 328 321 324 328 328 327 330 326 269 218 217 226
199 191 200 238 236 226 262 264 254 263 272 268 272 284 280 258 267 279 284 290 296 303 310 315 314 314 316 323 325 328 332 332 328 322 325 325 327 324 321 331 355 1 348 325
Height
1501 1504 1507 1507 1506 1505 1506 1507 1507 1503 1500 1500 1497 1494 1489 1488 1488 1487 1487 1487 1486 1486 1487 1487 1487 1488 1489 1490 1491 1492 1493 1495 1497 1499 1501 1503 1505 1507 1510 1512 1514 1517 1520 1523
1505 1508 1507 1505 1505 1506 1507 1508 1507 1502 1499 1499 1497 1492 1487 1486 1486 1486 1486 1485 1484 1483 1483 1483 1484 1484 1485 1486 1487 1489 1490 1492 1494 1496 1498 1500 1502 1504 1506 1509 1511 1514 1516 1519
1508 1509 1505 1505 1505 1505 1505 1508 1507 1505 1500 1498 1498 1491 1486 1485 1484 1484 1484 1483 1482 1482 1480 1480 1480 1481 1482 1483 1484 1485 1487 1488 1490 1493 1495 1497 1499 1501 1503 1505 1507 1510 1512 1515
1509 1508 1506 1505 1505 1505 1505 1503 1503 1503 1505 1505 1502 1500 1486 1484 1484 1483 1482 1481 1480 1480 1479 1478 1478 1478 1478 1480 1481 1483 1484 1486 1487 1490 1492 1493 1495 1496 1499 1501 1504 1507 1509 1512
1510 1509 1507 1506 1505 1505 1505 1502 1503 1503 1506 1508 1505 1506 1490 1486 1484 1482 1481 1480 1479 1478 1478 1477 1476 1476 1476 1477 1478 1480 1481 1483 1484 1487 1488 1490 1492 1494 1496 1499 1501 1503 1506 1508
1511 1509 1509 1507 1505 1505 1504 1503 1503 1505 1507 1509 1504 1506 1494 1489 1485 1483 1480 1479 1478 1477 1476 1475 1474 1473 1473 1474 1475 1476 1477 1479 1480 1482 1484 1487 1488 1490 1493 1495 1497 1500 1501 1504
1513 1509 1508 1507 1506 1505 1506 1509 1512 1510 1511 1505 1501 1501 1494 1486 1483 1482 1481 1479 1477 1476 1474 1472 1471 1470 1470 1470 1471 1473 1474 1475 1477 1478 1480 1483 1485 1487 1489 1491 1494 1496 1498 1500
1520 1514 1510 1509 1509 1510 1510 1512 1516 1515 1512 1508 1503 1501 1491 1484 1482 1481 1479 1478 1476 1474 1473 1471 1469 1468 1468 1468 1468 1469 1470 1471 1473 1475 1477 1479 1481 1483 1485 1488 1490 1492 1494 1497
1525 1519 1512 1510 1509 1509 1511 1514 1515 1520 1520 1519 1507 1501 1490 1482 1480 1479 1478 1476 1475 1473 1471 1469 1467 1466 1466 1466 1466 1467 1468 1469 1470 1471 1473 1475 1477 1479 1481 1484 1486 1489 1490 1493
1526 1526 1516 1513 1510 1510 1512 1515 1519 1518 1517 1512 1505 1503 1496 1486 1482 1481 1479 1476 1474 1472 1469 1467 1466 1466 1465 1464 1464 1465 1465 1465 1466 1468 1470 1471 1472 1474 1477 1480 1482 1484 1487 1489
1526 1528 1521 1517 1517 1516 1516 1517 1518 1519 1517 1516 1511 1498 1489 1487 1484 1483 1480 1477 1474 1471 1469 1467 1465 1464 1463 1462 1462 1462 1463 1463 1463 1464 1466 1467 1469 1471 1473 1475 1478 1480 1482 1484
1525 1529 1527 1520 1516 1516 1516 1517 1519 1518 1518 1521 1517 1502 1485 1485 1483 1482 1479 1476 1473 1471 1469 1467 1464 1463 1462 1461 1460 1461 1461 1461 1461 1462 1463 1464 1465 1467 1469 1471 1473 1476 1478 1480
1524 1528 1525 1516 1519 1520 1519 1519 1519 1520 1520 1521 1517 1501 1484 1483 1482 1480 1478 1475 1473 1470 1467 1465 1463 1461 1460 1459 1459 1459 1459 1458 1459 1459 1460 1460 1461 1463 1465 1467 1469 1471 1474 1476
1520 1526 1526 1520 1515 1517 1518 1517 1518 1519 1519 1517 1510 1497 1486 1484 1482 1479 1477 1474 1472 1470 1467 1465 1463 1460 1458 1458 1458 1458 1457 1457 1457 1457 1457 1458 1458 1460 1461 1463 1465 1467 1469 1471
1520 1525 1525 1521 1517 1517 1515 1513 1514 1515 1512 1509 1500 1497 1487 1485 1483 1479 1476 1473 1471 1468 1466 1465 1463 1460 1458 1457 1456 1456 1456 1455 1455 1455 1455 1455 1456 1456 1457 1459 1460 1462 1465 1466
1521 1525 1525 1521 1515 1515 1511 1507 1508 1508 1507 1505 1499 1493 1484 1483 1481 1478 1476 1473 1470 1468 1466 1464 1462 1460 1457 1456 1454 1454 1453 1453 1452 1452 1452 1452 1452 1452 1453 1454 1456 1458 1460 1461
1523 1525 1525 1520 1517 1511 1506 1501 1501 1501 1499 1499 1495 1488 1483 1481 1479 1477 1475 1472 1470 1467 1465 1462 1460 1458 1456 1455 1453 1452 1451 1450 1449 1449 1448 1449 1449 1449 1449 1450 1451 1453 1455 1457
1522 1524 1525 1523 1520 1513 1497 1496 1496 1496 1493 1492 1488 1485 1483 1481 1478 1475 1473 1471 1468 1466 1463 1461 1459 1457 1455 1453 1452 1450 1449 1448 1447 1446 1446 1446 1446 1446 1447 1448 1448 1449 1451 1452
1518 1521 1524 1525 1524 1511 1497 1494 1496 1496 1491 1487 1486 1483 1481 1479 1475 1472 1471 1469 1467 1465 1462 1460 1458 1455 1453 1451 1449 1448 1447 1446 1445 1444 1444 1444 1444 1444 1444 1445 1445 1447 1448 1449
1518 1519 1523 1525 1520 1508 1493 1493 1492 1494 1491 1483 1483 1481 1480 1478 1478 1473 1470 1467 1465 1463 1460 1458 1455 1453 1451 1449 1448 1446 1445 1444 1442 1442 1442 1442 1442 1442 1442 1443 1444 1445 1446 1447
1520 1522 1523 1523 1520 1505 1494 1492 1492 1495 1487 1482 1481 1480 1479 1478 1477 1472 1468 1466 1464 1461 1459 1456 1454 1452 1450 1448 1446 1445 1443 1442 1441 1440 1440 1440 1440 1440 1440 1440 1442 1443 1443 1444
1515 1518 1520 1520 1519 1504 1491 1491 1492 1487 1482 1480 1479 1478 1477 1475 1472 1469 1466 1464 1462 1459 1457 1454 1452 1450 1449 1447 1445 1443 1442 1441 1440 1439 1438 1438 1438 1438 1438 1438 1439 1440 1440 1441
1509 1507 1505 1505 1497 1488 1486 1484 1483 1482 1480 1478 1477 1475 1474 1472 1470 1467 1465 1462 1460 1458 1456 1453 1451 1449 1447 1446 1444 1442 1441 1440 1438 1437 1437 1436 1436 1436 1436 1436 1437 1438 1438 1439
1502 1501 1501 1499 1488 1484 1483 1481 1480 1479 1478 1476 1475 1473 1471 1469 1467 1465 1463 1460 1458 1456 1454 1452 1450 1447 1445 1444 1443 1441 1440 1439 1437 1436 1435 1435 1434 1434 1434 1434 1435 1436 1436 1437
1495 1497 1497 1494 1485 1481 1478 1477 1476 1475 1474 1473 1471 1470 1468 1466 1464 1463 1460 1459 1457 1455 1453 1451 1448 1446 1444 1443 1441 1440 1439 1438 1436 1435 1434 1433 1433 1432 1432 1432 1433 1433 1434 1435
1488 1489 1490 1483 1478 1478 1475 1474 1473 1472 1471 1469 1467 1465 1465 1463 1462 1460 1458 1457 1455 1453 1451 1449 1446 1444 1443 1441 1440 1439 1437 1436 1435 1434 1433 1432 1432 1432 1432 1431 1432 1432 1433 1433